STARLINK AA

Last updated on Jan. 16, 2020, 12:02 a.m. UTC

1 44938U 20001AA  20015.58334491 -.00008286  00000-0 -36062-4 0  9993
2 44938  53.0007 354.7792 0001083 237.1140 178.8141 15.82220077  1355

Satellite is not in orbit.